Regional Weather Roundup
Issued by NWS

Home | Current Version | Previous Version | Graphics & Text | Print | Product List | Glossary On
Versions: 1 2 3 4 5 6 7 8 9 10 11 12 13 14 15 16 17 18 19 20 21 22 23 24 25 26 27 28 29 30 31 32 33 34 35 36 37 38 39 40 41 42 43 44 45 46 47 48 49 50
000
ASUS43 KIND 210159
RWRIN

WEATHER ROUNDUP FOR INDIANA
NATIONAL WEATHER SERVICE INDIANAPOLIS IN
900 PM EST MON NOV 20 2017

NOTE: "FAIR" INDICATES FEW OR NO CLOUDS BELOW 12,000 FEET WITH NO
SIGNIFICANT WEATHER AND/OR OBSTRUCTIONS TO VISIBILITY.

* - STATION DOES NOT REPORT WEATHER SUCH AS PRECIPITATION OR FOG.

+ - STATION NOT QUALITY CONTROLLED BY THE NATIONAL WEATHER SERVICE.
    USE DATA WITH CAUTION...ESPECIALLY DEWPOINT AND RELATIVE
    HUMIDITY OBSERVATIONS.

INZ001>003-010>013-019-020-210300-
NORTHWEST INDIANA

CITY           SKY/WX    TMP DP  RH WIND       PRES   REMARKS
KNOX *+        PTCLDY    41  30  65 S16G23    29.82S
LA PORTE +     CLEAR     41  30  65 S14G20    29.82R
MICHIGAN CITY+ CLEAR     43  30  61 S16G26    29.80R
MONTICELLO +   CLEAR     42  26  52 S17G24    29.85F
RENSSELAER +   CLEAR     43  25  49 S18G24    29.83F

$$

LMZ046-743>745-210300-
SOUTHERN LAKE MICHIGAN

STATION/POSITION TIME  TEMP    WIND        PRES    WAVE
                       AIR SEA DIR/SP/G            HT
                 (UTC) (F)     (DEG/KT/KT) (MB)    (FT)
BURNS HARBOR     0140   45     190/ 26/ 33 1008.5S
MICHIGAN CITY    0130   45     170/ 20/ 24   N/A

$$

INZ004-005-014>016-021>024-210300-
NORTH CENTRAL INDIANA

CITY           SKY/WX    TMP DP  RH WIND       PRES   REMARKS
ELKHART        CLEAR     43  27  52 S12G23    29.81F
GOSHEN         CLEAR     43  24  47 S22G28    29.82F
PERU/GRISSOM   CLEAR     41  26  54 S18G24    29.86F
SOUTH BEND     CLEAR     42  29  59 S18G25    29.82S
WARSAW +       CLEAR     41  27  56 S8G16     29.84S

$$

INZ006>009-017-018-025>027-210300-
NORTHEAST INDIANA

CITY           SKY/WX    TMP DP  RH WIND       PRES   REMARKS
AUBURN +       CLEAR     41  27  56 S12G21    29.87F
FORT WAYNE     PTCLDY    42  28  57 S22G29    29.88F
KENDALLVILLE + CLEAR     41  27  58 S18G26    29.84F

$$

INZ028-029-035-036-043>045-051>053-210300-
WEST CENTRAL INDIANA

CITY           SKY/WX    TMP DP  RH WIND       PRES   REMARKS
CRAWFORDSVL +  CLEAR     39  26  58 S14       29.87F WCI  31
GREENCASTLE +  CLEAR     43  21  42 S10       29.94F
LAFAYETTE      CLEAR     42  27  55 S9        29.87F
TERRE HAUTE    CLEAR     44  25  47 S15       29.94F

$$

INZ030>032-037>040-046>048-054>057-064-065-210300-
CENTRAL INDIANA

CITY           SKY/WX    TMP DP  RH WIND       PRES   REMARKS
COLUMBUS       CLEAR     37  21  52 S10       30.00F WCI  30
FRANKFORT +    CLEAR     42  28  55 S14G21    29.90F
INDIANAPOLIS   PTCLDY    41  24  51 S14       29.95F
-EAGLE CREEK   CLEAR     41  23  48 S6        29.94F
KOKOMO +       CLEAR     41  26  55 S18       29.89F
MT COMFORT *+  CLEAR     39  30  70 S12G17    29.96F WCI  32
SHELBYVILLE    CLEAR     41  24  51 S13       29.97F

$$

INZ033-034-041-042-049-050-058-059-210300-
EAST CENTRAL INDIANA

CITY           SKY/WX    TMP DP  RH WIND       PRES   REMARKS
MUNCIE         CLEAR     42  25  50 S17G24    29.93F
RICHMOND +     CLEAR     32  28  86 S10       30.00F WCI  24

$$

INZ060-061-067>069-081>083-085>088-210300-
SOUTHWEST INDIANA

CITY           SKY/WX    TMP DP  RH WIND       PRES   REMARKS
EVANSVILLE     CLEAR     43  25  49 S9        30.03F
HUNTINGBURG +  CLEAR     41  26  55 S8        30.02F

$$

INZ062-063-066-070>080-084-089>092-210300-
SOUTH CENTRAL AND SOUTHEAST INDIANA

CITY           SKY/WX    TMP DP  RH WIND       PRES   REMARKS
BLOOMINGTON    CLEAR     41  23  48 S8        29.97F
MADISON *+     CLEAR     41  25  52 S5        30.05S
SEYMOUR +      CLEAR     41  25  52 S8        30.02F

$$





USA.gov is the U.S. government's official web portal to all federal, state and local government web resources and services.